Kinloss, United Kingdom

6:45 AM BST on May 28, 2017 (GMT +0100)
Kinloss Air Base

Weather History for EGQK - November, 2012

Change the Weather History Date:

Monday, November 12, 2012

  Actual Average Record
Temperature  
Mean Temperature 40 °F -  
Max Temperature 53 °F 46 °F 57 °F (2004)
Min Temperature 28 °F 35 °F 28 °F (2012)
Degree Days  
Heating Degree Days 24    
Moisture  
Dew Point 37 °F    
Average Humidity 79    
Maximum Humidity 87    
Minimum Humidity 68    
Precipitation  
Precipitation 0.04 in 0.08 in - ()
Sea Level Pressure  
Sea Level Pressure 29.80 in    
Wind  
Wind Speed 5 mph ()    
Max Wind Speed 12 mph    
Max Gust Speed -    
Visibility 6.7 miles    
Events Rain    
Averages and records for this station are not official NWS values.
T = Trace of Precipitation, MM = Missing Value Source: Averaged Metar Reports

Daily Weather History Graph

Daily Weather History Graph

Search for Another Location

Airport or City:

Trip Planner

Search our weather history database for the weather conditions in past years. The results will help you decide how hot, cold, wet, or windy it might be!

Date:

Astronomy

Nov. 12, 2012 Rise Set
Actual Time 7:52 AM GMT 4:03 PM GMT
Civil Twilight 7:08 AM GMT 4:47 PM GMT
Nautical Twilight 6:21 AM GMT 5:34 PM GMT
Astronomical Twilight 5:35 AM GMT 6:20 PM GMT
Moon 5:46 AM GMT (11/12) 3:07 PM GMT (11/12)
Length of Visible Light 9h 38m
Length of Day
8h 10m
Waning Crescent, 3% of the Moon is Illuminated
Nov 12
Waning Crescent
Nov 13
New
Nov 20
First Quarter
Nov 28
Full
Dec 6
Last Quarter

Hourly Weather History & Observations

Time (GMT) Temp. Windchill Dew Point Humidity Pressure Visibility Wind Dir Wind Speed Gust Speed Precip Events Conditions
12:50 AM 33.8 °F - 28.4 °F 81% 29.92 in 6.2 mi SW 2.3 mph - N/A   Unknown
1:50 AM 32.0 °F 28.7 °F 28.4 °F 87% 29.92 in 6.2 mi WSW 3.5 mph - N/A   Unknown
2:50 AM 30 °F - 27 °F 85% 29.91 in 25 mi WSW 2.3 mph - -  
2:50 AM 30.2 °F - 26.6 °F 86% 29.89 in 6.2 mi WSW 2.3 mph - N/A   Unknown
4:50 AM 28.4 °F - 24.8 °F 86% 29.89 in 6.2 mi SW 1.2 mph - N/A   Unknown
5:50 AM 28 °F - 25 °F 84% 29.89 in 31 mi ESE 4.6 mph - -  
5:50 AM 28.4 °F 23.3 °F 24.8 °F 86% 29.89 in 6.2 mi ESE 4.6 mph - N/A   Unknown
6:50 AM 37.4 °F 32.1 °F 30.2 °F 75% 29.86 in 6.2 mi SE 6.9 mph - N/A   Mostly Cloudy
7:50 AM 30.2 °F 26.7 °F 26.6 °F 86% 29.86 in 6.2 mi ESE 3.5 mph - N/A   Partly Cloudy
8:50 AM 36 °F - 32 °F 81% 29.84 in 40 mi East 8.1 mph - -   Mostly Cloudy
8:50 AM 37.4 °F 31.4 °F 32.0 °F 81% 29.83 in 6.2 mi East 8.1 mph - N/A   Mostly Cloudy
9:50 AM 41.0 °F 35.2 °F 35.6 °F 81% 29.80 in 6.2 mi East 9.2 mph - N/A   Mostly Cloudy
10:50 AM 46.4 °F 44.3 °F 39.2 °F 76% 29.77 in 6.2 mi SE 4.6 mph - N/A   Mostly Cloudy
11:50 AM 46 °F - 40 °F 72% 29.76 in 34 mi SE 4.6 mph - - Rain Light Rain
11:50 AM 46.4 °F 44.3 °F 39.2 °F 76% 29.74 in 6.2 mi SE 4.6 mph - N/A   Mostly Cloudy
12:50 PM 46.4 °F 43.5 °F 41.0 °F 81% 29.74 in 6.2 mi SSE 5.8 mph - N/A Rain Rain
1:50 PM 48.2 °F - 41.0 °F 76% 29.71 in 6.2 mi South 8.1 mph - N/A Rain Rain
2:50 PM 48 °F - 42 °F 72% 29.73 in 16 mi South 9.2 mph - - Rain Rain
2:50 PM 48.2 °F - 41.0 °F 76% 29.71 in 6.2 mi South 9.2 mph - N/A Rain Rain
3:50 PM 48.2 °F - 41.0 °F 76% 29.71 in - South 8.1 mph - N/A   Clear
4:50 PM 48.2 °F - 41.0 °F 76% 29.71 in 6.2 mi South 8.1 mph - N/A   Mostly Cloudy
5:50 PM 50 °F - 43 °F 69% 29.73 in 47 mi South 11.5 mph - -   Mostly Cloudy
5:50 PM 50.0 °F - 42.8 °F 76% 29.71 in - South 11.5 mph - N/A   Clear
6:50 PM 51.8 °F - 44.6 °F 76% 29.74 in - SSW 9.2 mph - N/A   Clear
7:50 PM 51.8 °F - 44.6 °F 76% 29.74 in - SSW 9.2 mph - N/A   Clear
8:50 PM 53 °F - 46 °F 68% 29.76 in 47 mi SSW 11.5 mph - -   Partly Cloudy
8:50 PM 53.6 °F - 46.4 °F 77% 29.74 in - SSW 11.5 mph - N/A   Clear
9:50 PM 53.6 °F - 46.4 °F 77% 29.77 in 6.2 mi SSW 8.1 mph - N/A Rain Rain
10:50 PM 51.8 °F - 46.4 °F 82% 29.80 in 6.2 mi WSW 9.2 mph - N/A   Mostly Cloudy
11:50 PM 48 °F - 44 °F 82% 29.83 in 47 mi West 6.9 mph - -   Scattered Clouds
11:50 PM 48.2 °F - 44.6 °F 87% 29.83 in 6.2 mi West 6.9 mph - N/A   Partly Cloudy